Regional Weather Roundup
Issued by NWS

Home | Current Version | Previous Version | Graphics & Text | Print | Product List | Glossary On
Versions: 1 2 3 4 5 6 7 8 9 10 11 12 13 14 15 16 17 18 19 20 21 22 23 24 25 26 27 28 29 30 31 32 33 34 35 36 37 38 39 40 41 42 43 44 45 46 47 48 49 50
000
ASUS45 KCYS 270210
RWRWY

WYOMING REGIONAL WEATHER ROUNDUP
NATIONAL WEATHER SERVICE CHEYENNE WY
800 PM MDT TUE AUG 26 2014

NOTE:  "FAIR" INDICATES FEW OR NO CLOUDS BELOW 12,000 FEET
WITH NO SIGNIFICANT WEATHER AND/OR OBSTRUCTIONS TO VISIBILITY.

WYZ001-270300-
YELLOWSTONE NATIONAL PARK

CITY           SKY/WX    TMP DP  RH WIND       PRES   REMARKS
LK YELLOWSTONE   N/A     50  45  83 CALM      30.36R
W YELLOWSTONE  NOT AVBL

$$
WYZ002>013-054>058-071-098>099-270300-
NORTHERN WYOMING

CITY           SKY/WX    TMP DP  RH WIND       PRES   REMARKS
JACKSON        MOCLDY    64  45  48 E6        30.25R
CODY           PTCLDY    70  48  46 SE3       30.17R
GREYBULL       PTCLDY    74  47  38 SW5       30.09S
WORLAND        MOCLDY    69  54  58 CALM      30.10F
SHERIDAN       CLEAR     64  52  64 W3        30.13F
BUFFALO        PTCLDY    62  49  62 W5        30.20S
GILLETTE       PTCLDY    66  51  58 N5        30.16R
HULETT         FAIR      66  54  63 MISG      30.17
NEWCASTLE      FAIR      72  52  49 N9G16     30.13

$$
WYZ014>020-022>026-101>103-270300-
CENTRAL WYOMING

CITY           SKY/WX    TMP DP  RH WIND       PRES   REMARKS
BIG PINEY      MOCLDY    56  45  66 NW10      30.29S
PINEDALE       MOCLDY    55  45  67 SW6       30.30R
DUBOIS         FAIR      59  41  51 SE13      30.27R
LANDER         PTCLDY    66  48  52 W8        30.17R
RIVERTON       PTCLDY    68  44  42 N9        30.17S
CASPER         MOCLDY    68  47  46 N8        30.17R
DOUGLAS        CLOUDY    71  50  47 N9        30.18R

$$
WYZ021-027>030-104>119-270300-
SOUTHERN WYOMING

CITY           SKY/WX    TMP DP  RH WIND       PRES   REMARKS
EVANSTON       MOCLDY    58  44  60 NE7       30.27F
KEMMERER       MOCLDY    55  45  67 NW3       30.30S
FORT BRIDGER   FAIR      56  46  68 S12       30.30R
ROCK SPRINGS   CLOUDY    60  40  47 S15       30.29R
DIXON          MOCLDY    62  49  61 W3        30.27R
RAWLINS        MOCLDY    64  47  53 W8        30.26R
SARATOGA       FAIR      63  48  59 MISG      30.27S
LARAMIE        MOCLDY    60  48  64 SE9       30.30R
CHEYENNE       MOCLDY    66  50  56 SE3       30.24R
TORRINGTON     CLOUDY    69  55  60 S22G37    30.07F
PINE BLUFFS    FAIR      63  52  67 N9G15     30.21R

$$


USA.gov is the U.S. government's official web portal to all federal, state and local government web resources and services.